XM-5                    
1 37185U 10053A   19260.82290899 -.00000209  00000-0  00000+0 0  9999
2 37185   0.0379 280.6565 0001388 127.3435 159.5097  1.00271325 32734
BREEZE-M R/B            
1 37186U 10053B   19260.98934744 -.00000074  00000-0  00000+0 0  9991
2 37186  22.6884  48.9720 6049425  26.9447 204.9852  2.17040602 70772
BREEZE-M DEB [TANK]     
1 37187U 10053C   19260.41019935  .00000241  00000-0  10692-3 0  9993
2 37187  49.5674 311.7349 5174441 340.9248   5.3399  5.27427742170385